sat.trackr.live / text

‹ back to catalog

STARLINK-11255 [DTC]

NORAD 60730 · 2024-152L

PAYLOAD ACTIVE UNKNOWN

§ Identity

Operator
Country
US
Launch date
2024-08-28
Launch site
AFETR
Launch vehicle
Mass (kg)
RCS (m²)

Purposes: comms

External: N2YO · Heavens-Above · Gunter

§ Orbital elements

Epoch: 2026-05-25T03:01:13.605024Z

Period
91.74 min
Inclination
53.1589°
Eccentricity
0.0000881
Mean motion
15.69714050 rev/d
Perigee alt
359.1 km
Apogee alt
360.3 km
Semi-major
6,737.9 km
B*
1.1828e-5
RAAN
99.1988°
Arg perigee
88.5199°
Mean anomaly
271.5920°
Rev number
10,085

§ Raw data

STARLINK-11255 [DTC]1 60730U 24152L   26145.12585191  .00000845  00000+0  11828-4 0  99902 60730  53.1589  99.1988 0000881  88.5199 271.5920 15.69714050100858

JSON: /api/v1/satellites/60730 · /tle

For live sub-satellite position, see the globe view (requires WebGL).

§ Visibility from observer

Set your observer location to see the next 7 days of passes ≥ 10°. The values pass through the URL so the page stays shareable.

No JS? Fill the form by hand. The geolocation button needs JavaScript.